Regional Weather Roundup
Issued by NWS

Home | Current Version | Previous Version | Graphics & Text | Print | Product List | Glossary On
Versions: 1 2 3 4 5 6 7 8 9 10 11 12 13 14 15 16 17 18 19 20 21 22 23 24 25 26 27 28 29 30 31 32 33 34 35 36 37 38 39 40 41 42 43 44 45 46 47 48 49 50
000
ASUS45 KABQ 310101
RWRNM
WEATHER ROUNDUP FOR NEW MEXICO
NATIONAL WEATHER SERVICE ALBUQUERQUE NM
700 PM MDT SAT AUG 30 2014

NOTE: "FAIR" MEANS FEW OR NO CLOUDS BELOW 12,000 FEET AGL WITH NO
       SIGNIFICANT WEATHER OR OBSTRUCTIONS TO VISION.

      THIS PRODUCT IS RELEASED AS TWO VERSIONS.  ONE VERSION NEAR
      THE TOP OF THE HOUR CONTAINING PRELIMINARY DATA FROM ALBUQUERQUE
      AND OTHER STATIONS.  A FINAL VERSION WITH ADDITIONAL DATA IS
      ISSUED ABOUT 10 MINUTES AFTER THE HOUR.

NMZ501-503-504-510>518-310200-
NORTHWEST PLATEAU/NORTHCENTRAL MOUNTAINS

CITY           SKY/WX    TMP DP  RH WIND       PRES   REMARKS
FARMINGTON     CLEAR     84  34  16 SW5       30.01F
LOS ALAMOS     PTCLDY    78  32  18 SW9       30.18S
SANTA FE       PTCLDY    80  36  20 SW9       30.10S
ANGEL FIRE     FAIR      68  34  28 S10       30.25F

$$
NMZ402-403-502-505>509-310200-
WESTCENTRAL MOUNTAINS/SOUTHWEST MOUNTAINS

CITY           SKY/WX    TMP DP  RH WIND       PRES   REMARKS
GALLUP         PTCLDY    83  22  10 W14       30.12S
SILVER CITY    CLEAR     86  36  16 W10       30.09S

$$
NMZ407-409-411-412-310200-
SOUTHERN DESERTS

CITY           SKY/WX    TMP DP  RH WIND       PRES   REMARKS
LORDSBURG      FAIR      91  41  17 W5        29.98S
DEMING         FAIR      92  37  14 W8        29.98S
LAS CRUCES     CLEAR     92  37  14 S12       30.01F
HOLLOMAN AFB   CLEAR     92  41  16 S9        29.96F
ALAMOGORDO     CLEAR     90  39  17 S6        29.99S
T OR C         CLEAR     90  39  16 S15       30.00S

$$
NMZ519>523-310200-
CENTRAL VALLEYS/CENTRAL HIGHLANDS

CITY           SKY/WX    TMP DP  RH WIND       PRES   REMARKS
ALBUQUERQUE    MOCLDY    88  40  18 S14       30.03F
DOUBLE EAGLE   MOCLDY    82  43  24 SE12      30.06F
CLINES CORNERS CLEAR     76  38  25 W13       30.17F
BELEN          FAIR      85  42  22 S9        30.01F
SOCORRO        FAIR      88  40  18 S12       30.00S

$$
NMZ524>526-539-540-310200-
SOUTHCENTRAL MOUNTAINS

CITY           SKY/WX    TMP DP  RH WIND       PRES   REMARKS
RUIDOSO        NOT AVBL

$$
NMZ527>531-310200-
NORTHEAST HIGHLANDS/NORTHEAST PLAINS

CITY           SKY/WX    TMP DP  RH WIND       PRES   REMARKS
LAS VEGAS      PTCLDY    75  37  25 SW10      30.15S
RATON          MOCLDY    76  38  25 S8        30.04S
CLAYTON        PTCLDY    79  50  36 S14       29.98S

$$
NMZ532>537-310200-
EASTCENTRAL PLAINS

CITY           SKY/WX    TMP DP  RH WIND       PRES   REMARKS
TUCUMCARI      PTCLDY    90  46  21 SW13      29.92R
CANNON AFB     MOCLDY    86  48  26 S12       29.99S
CLOVIS AIRPORT   N/A     84  46  26 S14       30.01R

$$
NMZ028-029-538-310200-
SOUTHEAST PLAINS

CITY           SKY/WX    TMP DP  RH WIND       PRES   REMARKS
ROSWELL        PTCLDY    91  43  18 S10       29.94S
CARLSBAD       CLEAR     94  35  12 SE10      29.92F
HOBBS          CLEAR     88  45  22 E14       29.99S


$$


USA.gov is the U.S. government's official web portal to all federal, state and local government web resources and services.